"Pseudo-MPEC" for P11gO7e

Created 2021 Jun 13 4:07:25 UT using Find_Orb

Click here for an explanation of pseudo-MPECs

 
 Astrometry: 
     P11gO7e  C2021 06 073:v/A,]Mq![OEZIN6b$O7bq9JDaDqN!2J?ukXrw3.2hO`$7-([YBF51
     P11gO7e  C2021 06 07+#]*te+`5$[Z^m-5;;9]ES;6LIs-\;l_RP3=[N,:/@R#Mh]h]v%\F51
     P11gO7e  C2021 06 07*AsVDAstrometryl=a/?m`,duZpijredacted;6Bmd*,!'2^e-1uF51
     P11gO7e ^C2021 06 09.43740516 43 33.090+19 54 40.16   ~69Bb 22.19GVNEOCP568
     P11gO7e ^C2021 06 09.43857416 43 32.931+19 54 42.32   ~69Bb 22.21GVNEOCP568
     P11gO7e ^C2021 06 09.43956316 43 32.797+19 54 44.22   ~69Bb 22.14GVNEOCP568
     P11gO7e KC2021 06 11.19497516 39 45.30 +20 49 01.6    ~6B5b 22.06GVNEOCPV06
     P11gO7e KC2021 06 11Q#8W!ve;(Okcy4-i0-t*:veZ*gclickk%Hqu@MK_BS4here3p3H#H21
     P11gO7e KC2021 06 112W0-$][^qfKforEC=^DCCexplanationfv1TGxVJTh(duxB2YZ)EH21
     P11gO7e KC2021 06 11.21510616 39 42.58 +20 49 38.4    ~6B5b 21.97GVNEOCPV06
     P11gO7e KC2021 06 11.22517416 39 41.22 +20 49 56.9    ~6B5b 21.91GVNEOCPV06
     P11gO7e KC2021 06 12.30339316 37 19.09 +21 22 19.0    ~6C7q 21.66GVNEOCPV06
     P11gO7e KC2021 06 12.30650516 37 18.70 +21 22 25.3    ~6C7q       VNEOCPV06
     P11gO7e KC2021 06 12.30961816 37 18.21 +21 22 29.6    ~6C7q 22.61GVNEOCPV06
     P11gO7e KC2021 06 12.31272816 37 17.85 +21 22 35.5    ~6C7q 22.38GVNEOCPV06

Station data:
(568) Mauna Kea  (N19.826116 W155.472200)  US/Hawaii.
(F51) Pan-STARRS 1, Haleakala  (N20.707235 W156.255910)  US/Hawaii.
   Observers N. Primak, A. Schultz, S. Watters, J. Thiel, T. Goggia. Measurer
   PS1 Science Consortium. 1.8-m Ritchey-Chrétien + CCD.
(H21) Astronomical Research Observatory, Westfield  (N39.483057 W87.968270)
   US/Illinois. 0.76-m f/3.0 astrograph + CCD.
(V06) Catalina Sky Survey-Kuiper  (N32.416847 W110.732550)  US/Arizona.
   Observers T. A. Pruyne, B. M. Africano, E. J. Christensen, G. A. Farneth,
   D. C. Fuls, A. R. Gibbs, A. D. Grauer, H. Gröller, J. A. Johnson, R. A.
   Kowalski, S. M. Larson, G. J. Leonard, D. Rankin, R. L. Seaman, F. C.
   Shelly. 1.55-m reflector + CCD.

Orbital elements:  P11gO7e
   Perihelion 2021 Oct 14.832507 +/- 0.238804 TT = 19:58:48 (JD 2459502.332507)
Epoch 2021 Jun 12.0 TT = JDT 2459377.5   Earth MOID: 0.2183   Ve: 0.0493
M 290.79508440 +/- 0.2009548        (J2000 ecliptic)          AutoNEOCP
n   0.55438216 +/- 0.00220713       Peri.  165.95222 +/- 0.1498522
a   1.46756230 +/- 0.00389498       Node   216.83687 +/- 0.2492893
e   0.4816169 +/- 0.001876          Incl.   25.80707 +/- 0.2295860
P   1.78/649.36d           H 21.1   G  0.15   U  8.6  
q 0.76075940 +/- 0.000750519    Q 2.17436521 +/- 0.00848619
From 15 observations 2021 June 7-12; mean residual 0".23
Residuals in arcseconds: 
210607 F51  .13-  .08+    210609 568  .01-  .05+    210611 V06  .05+  .15-    
210607 F51  .24+  .16-    210611 V06  .11-  .06-    210612 V06  .16-  .04-    
210607 F51  .12-  .03+    210611 H21  .02+  .06+    210612 V06  .35+  .73+    
210609 568  .04+  .06+    210611 H21  .02+  .07+    210612 V06  .54-  .49-    
210609 568  .01+  .01+    210611 V06  .03-  .20-    210612 V06  .37+  .10-    

Ephemerides (geocentric):
Date (UTC) HH   RA              Dec         delta   r     elong  mag " sig PA
---- -- -- --  -------------   -----------  ------ ------ -----  --- ---- ---
2021 06 13 04  16 35 25.103   +21 47 41.57  .65570 1.5415 133.4 22.4 .354  42
2021 06 13 05  16 35 19.581   +21 48 54.13  .65563 1.5412 133.3 22.4 .366  42
2021 06 13 06  16 35 14.058   +21 50 06.61  .65556 1.5409 133.3 22.4 .379  42
2021 06 13 07  16 35 08.534   +21 51 19.02  .65549 1.5407 133.3 22.4 .392  42
2021 06 13 08  16 35 03.008   +21 52 31.36  .65542 1.5404 133.2 22.4 .405  42
2021 06 13 09  16 34 57.482   +21 53 43.62  .65535 1.5401 133.2 22.4 .419  41
2021 06 13 10  16 34 51.955   +21 54 55.81  .65528 1.5399 133.1 22.4 .432  41
2021 06 13 11  16 34 46.427   +21 56 07.92  .65521 1.5396 133.1 22.4 .446  41
2021 06 13 12  16 34 40.897   +21 57 19.96  .65514 1.5393 133.1 22.4 .459  41
2021 06 13 13  16 34 35.367   +21 58 31.92  .65508 1.5391 133.0 22.4 .473  41
2021 06 13 14  16 34 29.836   +21 59 43.80  .65501 1.5388 133.0 22.4 .487  41
2021 06 13 15  16 34 24.303   +22 00 55.61  .65494 1.5385 133.0 22.4 .501  41
2021 06 13 16  16 34 18.770   +22 02 07.35  .65487 1.5382 132.9 22.4 .516  41
2021 06 13 17  16 34 13.236   +22 03 19.00  .65481 1.5380 132.9 22.4 .530  40
2021 06 13 18  16 34 07.701   +22 04 30.59  .65474 1.5377 132.8 22.4 .545  40
2021 06 13 19  16 34 02.165   +22 05 42.09  .65467 1.5374 132.8 22.4 .560  40
2021 06 13 20  16 33 56.628   +22 06 53.53  .65461 1.5372 132.8 22.4 .574  40
2021 06 13 21  16 33 51.090   +22 08 04.88  .65454 1.5369 132.7 22.4 .589  40
2021 06 13 22  16 33 45.551   +22 09 16.16  .65447 1.5366 132.7 22.4 .605  40
2021 06 13 23  16 33 40.012   +22 10 27.36  .65441 1.5363 132.6 22.4 .620  40
2021 06 14 00  16 33 34.471   +22 11 38.49  .65434 1.5361 132.6 22.4 .636  40
2021 06 14 01  16 33 28.930   +22 12 49.54  .65428 1.5358 132.6 22.4 .651  40
2021 06 14 02  16 33 23.388   +22 14 00.51  .65422 1.5355 132.5 22.4 .667  40
2021 06 14 03  16 33 17.845   +22 15 11.40  .65415 1.5353 132.5 22.4 .683  39
2021 06 14 04  16 33 12.301   +22 16 22.22  .65409 1.5350 132.4 22.4 .699  39
2021 06 14 05  16 33 06.757   +22 17 32.97  .65403 1.5347 132.4 22.4 .715  39
2021 06 14 06  16 33 01.212   +22 18 43.63  .65396 1.5344 132.4 22.4 .732  39
2021 06 14 07  16 32 55.665   +22 19 54.22  .65390 1.5342 132.3 22.4 .748  39
2021 06 14 08  16 32 50.119   +22 21 04.73  .65384 1.5339 132.3 22.4 .765  39
2021 06 14 09  16 32 44.571   +22 22 15.16  .65378 1.5336 132.2 22.4 .782  39
2021 06 14 10  16 32 39.023   +22 23 25.52  .65371 1.5334 132.2 22.4 .799  39
2021 06 14 11  16 32 33.474   +22 24 35.80  .65365 1.5331 132.2 22.4 .816  39
2021 06 14 12  16 32 27.925   +22 25 46.00  .65359 1.5328 132.1 22.4 .833  39
2021 06 14 13  16 32 22.374   +22 26 56.12  .65353 1.5325 132.1 22.4 .851  39
2021 06 14 14  16 32 16.823   +22 28 06.17  .65347 1.5323 132.0 22.4 .868  38
2021 06 14 15  16 32 11.272   +22 29 16.14  .65341 1.5320 132.0 22.4 .886  38
2021 06 14 16  16 32 05.720   +22 30 26.03  .65335 1.5317 132.0 22.4 .904  38
2021 06 14 17  16 32 00.167   +22 31 35.84  .65329 1.5315 131.9 22.4 .922  38
2021 06 14 18  16 31 54.613   +22 32 45.57  .65323 1.5312 131.9 22.4 .940  38
2021 06 14 19  16 31 49.059   +22 33 55.23  .65317 1.5309 131.8 22.4 .958  38
2021 06 14 20  16 31 43.505   +22 35 04.80  .65311 1.5306 131.8 22.4 .977  38
2021 06 14 21  16 31 37.950   +22 36 14.30  .65306 1.5304 131.8 22.4 1.00  38
2021 06 14 22  16 31 32.394   +22 37 23.72  .65300 1.5301 131.7 22.4 1.01  38
2021 06 14 23  16 31 26.838   +22 38 33.06  .65294 1.5298 131.7 22.4 1.03  38
2021 06 15 00  16 31 21.281   +22 39 42.33  .65288 1.5296 131.6 22.4 1.05  38
2021 06 15 01  16 31 15.724   +22 40 51.51  .65283 1.5293 131.6 22.4 1.07  38
2021 06 15 02  16 31 10.166   +22 42 00.62  .65277 1.5290 131.6 22.4 1.09  37
2021 06 15 03  16 31 04.608   +22 43 09.64  .65271 1.5287 131.5 22.4 1.11  37